Lapse_Rate
4.1 3.6 3.3 3.4 3.5 3.5 3.5 3.6 3.6 3.9 5.0 6.1 6.9 5.7 6.1 6.2 6.7 6.3 6.3 6.4 6.6 6.5 6.3 6.9 7.2 7.3 7.4 7.4 7.4 7.2 6.9 7.3 7.6 7.5 7.6 7.8 7.2 7.7 7.9 8.2 8.1 8.2 8.3 8.3
4.1 3.6 3.4 3.4 3.6 3.5 3.7 4.1 4.2 5.5 6.5 6.9 6.9 7.0 7.2 7.1 7.3 7.4 7.2 7.0 7.0 7.0 6.7 6.4 6.6 7.0 7.2 7.4 7.3 7.3 7.1 7.1 7.2 7.5 7.4 7.7 7.6 7.5 7.7 8.1 8.3 8.1 8.3 8.3
3.3 3.2 3.3 3.4 3.4 3.6 4.4 5.2 5.4 6.0 6.4 6.9 7.1 7.2 7.3 7.6 7.8 7.7 7.6 7.2 6.9 7.1 7.2 6.8 6.6 7.0 7.2 7.3 7.2 6.9 6.8 6.8 7.0 7.0 7.7 7.3 7.4 7.0 7.2 7.4 7.7 8.2 8.2 8.3
3.7 3.6 3.5 3.5 3.7 3.9 5.0 5.6 6.4 6.9 7.0 6.8 7.2 6.6 7.1 6.9 7.5 7.8 7.5 7.4 7.4 7.5 7.4 7.3 6.9 7.1 7.3 7.5 7.5 7.0 6.7 6.9 7.1 6.9 6.5 7.2 7.3 7.1 7.4 7.6 7.9 7.9 8.0 7.9
3.5 3.5 3.6 3.7 3.7 4.3 5.2 5.9 6.6 7.5 8.1 7.8 8.1 7.4 7.2 7.4 7.1 7.1 7.4 7.1 6.9 7.3 7.3 7.4 7.3 7.4 7.9 7.6 7.6 7.4 7.0 6.6 7.2 6.6 6.7 6.3 6.7 7.0 7.2 7.4 7.6 7.8 7.9 7.9
3.6 3.4 3.5 3.4 4.4 4.8 5.7 6.3 7.2 8.2 8.3 7.3 7.5 7.5 7.3 7.1 6.9 6.6 7.3 7.1 6.9 7.1 7.1 7.0 7.5 7.6 7.8 8.0 8.0 7.8 7.6 7.1 6.7 7.0 6.8 6.5 6.4 6.3 6.7 7.1 7.3 7.6 7.8 7.9
4.4 3.8 3.6 3.6 4.8 6.3 6.3 6.3 6.6 6.4 6.7 6.5 7.9 7.8 7.0 6.7 7.2 6.5 6.7 7.3 7.1 6.9 6.9 7.1 7.3 7.7 7.7 8.4 8.2 8.4 7.9 7.5 7.2 6.7 7.1 7.1 6.7 6.7 6.4 6.8 7.2 7.5 7.7 7.8
3.7 4.4 4.0 4.0 4.0 4.6 5.9 6.3 6.7 6.1 5.9 7.0 7.6 8.2 6.9 6.9 6.4 6.5 6.6 7.5 7.7 7.1 7.1 7.3 7.4 7.7 7.8 7.9 8.0 7.9 8.3 7.8 7.3 7.3 6.8 7.3 7.3 6.7 6.6 6.7 6.6 7.0 7.4 7.8
3.9 4.1 4.6 4.3 4.8 4.7 5.4 6.4 6.8 6.5 7.1 6.7 7.6 7.1 7.1 7.0 7.2 6.8 7.2 6.9 7.0 7.2 7.1 7.3 7.6 7.8 8.0 7.4 7.9 7.9 7.8 7.7 7.4 7.4 7.3 6.8 7.1 7.3 6.7 6.8 6.7 6.7 7.0 7.5
3.7 3.7 4.4 4.7 5.1 5.6 5.1 5.6 6.7 6.7 5.1 4.9 7.1 7.7 7.8 7.4 7.6 7.3 7.5 7.6 7.6 7.4 7.1 7.1 7.5 7.5 7.9 8.1 7.9 8.2 7.8 7.6 7.5 7.4 7.5 7.4 6.9 7.0 7.4 7.3 6.8 6.7 6.6 6.8
3.8 4.0 4.6 4.6 4.4 5.0 5.5 5.4 5.7 6.4 6.5 6.3 5.5 6.6 7.2 6.9 7.3 7.2 7.3 7.5 7.6 7.6 7.1 7.4 7.1 7.2 7.4 8.0 8.4 8.5 8.5 7.7 7.6 7.2 6.9 7.2 7.3 6.9 6.8 6.8 6.9 6.4 6.5 6.6
4.0 4.0 4.2 4.6 4.6 4.9 5.4 5.7 5.7 5.9 6.2 6.2 5.9 5.4 7.2 7.5 7.5 7.2 7.1 7.1 7.1 7.1 7.2 7.1 7.3 7.5 7.4 7.4 7.7 8.4 8.8 8.4 7.7 7.4 7.0 6.8 7.1 7.0 6.4 6.1 6.0 6.1 6.0 6.5
4.2 4.1 3.8 4.6 5.2 5.2 5.5 5.9 6.0 6.0 6.2 6.2 5.7 5.7 6.9 7.6 7.8 7.3 7.0 7.0 7.1 7.0 7.1 6.8 6.6 6.7 6.8 6.7 6.7 7.1 7.6 8.4 8.4 7.7 7.2 6.7 6.4 6.5 6.3 6.3 6.7 6.1 5.1 6.3
4.0 4.3 4.3 4.4 4.9 5.3 5.6 6.3 6.6 7.0 6.7 6.8 6.6 6.7 7.1 7.5 7.3 6.8 6.9 6.8 7.0 7.0 7.0 6.7 6.5 6.5 6.6 6.1 6.0 6.0 6.6 7.6 8.5 8.0 7.4 6.9 6.6 6.3 6.1 6.4 6.7 6.8 6.2 4.5
4.2 4.5 4.7 4.7 5.3 5.7 5.8 6.3 7.3 7.2 7.7 7.0 7.8 7.4 7.0 6.6 6.8 6.8 6.9 7.2 7.4 7.2 7.3 7.1 7.0 6.9 6.7 6.3 6.0 5.8 5.9 6.2 7.5 7.8 6.7 6.7 6.3 6.0 6.3 6.6 6.6 6.6 6.1 6.8
4.4 4.6 5.1 5.4 5.8 5.8 6.2 6.8 7.4 7.8 7.7 7.4 7.2 7.2 7.1 7.1 6.7 6.8 7.4 7.4 7.4 7.5 7.4 7.0 7.0 7.3 6.9 6.2 5.9 5.7 5.5 5.8 5.9 6.0 5.7 4.9 5.7 5.9 6.5 6.7 7.0 7.2 6.5 5.6
4.2 4.4 4.8 5.3 5.7 6.0 6.7 6.9 7.3 7.6 7.8 7.7 7.5 7.5 7.5 7.4 7.3 7.5 7.5 7.3 7.3 7.5 7.0 7.0 7.2 7.3 7.1 6.6 5.9 5.6 5.1 5.1 5.4 5.4 5.7 5.4 5.9 6.5 6.4 6.8 6.4 5.8 5.6 5.7
4.9 4.8 4.4 4.9 5.4 3.8 6.8 7.1 7.3 7.3 7.4 7.4 7.7 7.3 7.4 7.5 7.4 7.4 7.4 7.4 7.4 7.2 6.8 7.1 7.2 7.3 7.1 6.9 6.6 6.1 5.7 5.3 4.9 5.1 5.3 5.5 5.3 5.7 6.6 6.8 5.9 5.3 4.8 5.8
5.4 4.7 4.7 4.7 5.1 6.0 6.7 7.0 7.2 7.5 7.8 7.5 7.8 7.6 7.4 7.3 7.5 7.3 7.3 7.4 7.1 7.0 7.2 7.2 7.0 7.1 7.2 7.1 6.8 6.6 6.0 5.9 5.1 5.0 5.0 5.5 5.8 6.0 7.0 6.7 6.2 5.7 5.6 5.5
5.3 5.1 5.0 5.2 4.9 3.8 6.8 6.8 7.1 7.4 7.6 7.6 7.6 7.6 7.9 7.7 7.6 7.8 7.5 7.5 7.3 7.0 7.1 7.1 6.9 7.1 7.0 7.0 7.1 6.9 6.6 6.4 6.2 5.3 5.3 4.8 5.4 5.8 6.2 6.7 6.5 6.5 5.2 5.2
5.3 5.0 5.0 5.2 5.0 5.4 6.4 6.7 6.8 7.1 7.3 7.4 7.7 7.7 7.7 7.7 7.6 7.5 7.3 7.5 7.5 7.1 7.0 7.2 7.2 7.2 7.1 7.1 7.2 7.0 6.7 6.7 6.4 6.1 5.5 5.5 5.2 5.4 5.8 6.0 5.9 6.5 6.8 6.8
5.5 5.5 5.7 5.4 5.5 5.5 6.6 6.5 6.6 6.7 7.2 7.5 7.7 7.9 7.9 7.8 7.7 7.5 7.3 7.3 7.5 7.6 7.5 7.2 7.1 7.3 7.2 7.1 7.3 7.1 7.0 6.7 6.6 6.2 6.0 5.8 5.6 5.5 5.5 5.6 5.8 5.6 6.3 6.9
5.3 5.6 5.5 5.6 5.8 6.4 6.3 6.5 6.7 6.9 7.2 7.2 7.6 7.8 8.1 8.1 7.9 7.9 7.9 7.6 7.6 7.6 7.7 7.6 7.5 7.4 7.2 7.2 7.3 7.3 7.1 6.9 6.6 6.6 6.2 6.0 5.8 5.8 5.8 5.5 5.5 5.7 5.4 6.3
5.5 5.9 5.5 5.4 6.1 6.3 6.3 6.6 6.8 6.9 6.9 7.1 7.7 7.8 8.0 7.9 7.9 8.0 8.0 7.9 7.9 7.9 7.9 7.8 7.8 7.6 7.4 7.2 7.2 7.4 7.2 7.2 7.0 6.9 6.6 6.1 6.0 5.7 5.8 5.9 5.6 5.2 5.2 5.2
5.5 5.5 5.6 5.1 6.3 6.0 6.4 6.5 6.6 6.5 6.7 7.1 7.4 7.8 7.9 7.9 7.9 8.0 7.9 7.9 7.9 7.8 7.8 7.8 7.8 7.8 7.6 7.3 7.1 7.3 7.2 7.2 7.2 7.2 7.2 6.7 6.3 6.3 5.9 5.5 5.9 5.8 5.7 5.0
6.2 6.2 5.1 5.5 6.2 5.8 6.5 6.4 6.4 6.3 6.6 7.4 7.5 7.6 7.8 8.0 8.2 8.2 8.0 8.0 7.9 7.9 8.0 8.1 8.0 7.7 7.7 7.6 7.3 7.1 7.2 7.1 7.1 7.1 7.1 7.0 6.9 6.9 6.4 6.3 5.9 5.5 5.6 5.7
Wind_Speed
6 6 5 7 5 5 4 4 5 5 8 7 11 14 11 8 8 11 12 11 14 13 9 8 7 8 8 5 9 15 18 19 14 11 12 11 12 12 11 14 22 22 26 21
7 7 9 11 12 8 7 5 8 3 7 9 9 12 10 5 8 8 14 16 16 18 21 21 21 20 17 10 2 7 15 15 16 14 13 11 15 15 15 12 18 23 25 24
4 6 12 10 9 14 7 5 13 9 7 2 5 8 12 15 4 12 17 15 16 16 19 20 19 19 17 18 17 12 10 17 18 20 12 7 4 5 7 10 13 17 27 28
3 7 9 8 10 10 5 8 11 9 10 5 4 9 12 6 8 15 15 15 16 17 18 18 20 19 17 17 15 15 15 14 14 14 14 20 15 14 13 15 14 15 24 23
6 5 7 8 10 12 3 9 7 8 10 4 5 1 5 13 12 14 12 12 16 14 16 19 21 18 16 16 15 15 14 12 13 16 17 15 18 16 14 13 17 17 17 20
2 2 6 3 11 8 13 10 5 4 2 2 1 8 3 6 8 14 13 11 17 15 17 18 19 17 15 16 16 15 15 15 11 10 16 19 20 17 14 15 13 12 13 15
6 4 6 13 10 6 17 6 4 5 4 4 5 6 5 9 8 14 10 14 16 15 16 17 20 20 22 20 19 18 18 16 15 10 12 18 20 18 20 19 16 17 13 13
3 6 7 9 4 6 7 4 3 5 2 9 10 2 1 13 10 15 11 11 12 11 10 15 17 17 18 18 18 19 19 18 16 16 13 12 19 15 13 17 15 14 14 16
3 3 4 6 10 3 6 3 7 3 4 2 2 5 2 9 14 12 9 10 8 11 10 12 15 15 17 17 16 17 16 16 17 18 14 14 11 19 18 18 18 15 18 14
2 3 2 5 4 6 2 4 4 3 3 4 4 4 4 7 14 16 10 13 9 7 7 10 12 13 14 16 14 14 17 16 16 18 15 13 15 6 14 19 15 18 17 16
3 4 4 5 4 4 5 3 3 1 3 3 5 5 2 7 14 14 7 11 11 10 6 12 13 9 15 14 16 16 16 17 17 16 17 15 15 8 5 4 9 13 17 17
2 4 2 7 0 9 5 5 4 4 7 2 4 6 8 12 19 15 6 8 7 9 9 9 11 11 13 14 16 16 16 16 17 16 15 16 16 6 6 11 16 13 17 16
4 1 3 6 5 5 1 3 4 1 1 7 4 6 8 18 18 14 4 6 5 7 8 6 6 7 8 9 11 15 15 17 16 17 17 16 14 13 12 15 13 11 17 24
6 4 7 6 8 3 5 4 5 5 3 7 12 21 20 18 13 6 4 6 4 5 8 8 6 5 5 6 6 12 14 15 16 17 16 16 16 15 12 13 13 9 20 21
5 4 3 6 9 7 11 15 18 7 15 7 23 19 19 15 5 4 5 6 5 5 9 12 11 6 5 6 6 10 13 12 14 15 16 15 15 15 14 13 13 11 10 12
3 2 2 4 7 8 11 16 16 14 10 12 16 9 9 8 6 5 3 8 9 9 12 14 12 9 7 6 8 10 11 13 13 14 14 13 14 14 13 12 12 14 13 13
2 3 2 4 3 9 4 5 5 2 2 2 6 4 5 6 10 4 5 6 8 9 13 12 8 8 6 5 4 6 9 10 11 12 15 16 15 15 14 12 12 12 11 10
5 5 3 4 3 2 6 8 5 4 4 5 7 8 6 9 6 6 7 6 8 9 13 11 7 6 6 4 4 5 7 7 10 11 13 14 15 15 14 14 12 10 10 9
10 4 1 2 2 7 6 2 2 1 8 8 5 6 5 6 1 6 7 7 9 11 9 7 5 4 6 6 6 5 5 3 9 12 13 14 14 15 14 14 15 15 15 12
11 8 4 1 3 5 6 4 5 1 3 8 5 5 4 5 3 4 5 5 8 11 8 3 5 4 6 6 7 6 7 7 10 11 12 12 13 12 13 13 12 12 12 12
4 2 11 8 5 7 8 7 4 1 6 3 2 5 4 2 5 7 7 7 5 6 5 4 4 4 5 6 7 7 8 9 9 9 10 10 12 13 11 11 10 10 10 10
5 4 4 2 1 9 7 1 1 5 2 3 4 5 5 5 6 6 8 8 7 5 6 6 5 5 5 6 6 6 7 10 10 10 10 10 9 10 11 12 11 10 10 9
3 6 3 8 6 5 3 4 4 4 5 5 5 7 6 2 3 5 4 6 6 5 6 5 5 5 5 6 5 8 7 11 10 11 10 11 10 8 10 12 13 10 9 8
3 2 3 3 4 6 6 7 5 7 7 6 5 6 4 3 5 5 4 5 4 5 5 5 6 6 5 6 5 5 10 10 10 10 10 10 10 10 9 7 7 8 9 8
4 4 3 7 14 15 14 6 5 7 10 6 4 5 3 4 6 4 3 5 5 5 6 6 8 6 7 6 6 7 9 10 11 10 12 11 8 9 9 8 7 7 6 7
8 16 8 9 12 8 9 10 10 9 13 9 7 4 5 4 3 4 4 4 4 5 6 8 7 9 7 8 9 10 10 10 10 10 10 9 8 9 9 9 9 8 9 12
Wind_Direction
350 60 21 312 323 314 283 286 284 290 358 340 322 305 313 313 331 333 316 309 308 303 287 297 305 315 324 84 186 199 195 198 184 185 178 177 192 194 192 193 191 191 196 198
19 39 349 352 349 341 347 334 324 302 357 341 316 302 308 358 325 352 14 32 27 16 10 11 17 9 357 344 292 206 218 218 200 194 194 185 200 194 192 186 189 192 195 198
116 18 360 5 18 12 345 350 326 310 328 274 341 306 313 329 6 14 17 20 27 21 5 1 13 7 5 12 1 343 313 220 206 205 187 198 180 196 197 197 192 198 195 194
6 346 3 38 11 355 310 340 314 331 350 308 79 294 302 306 35 13 13 11 14 10 5 355 5 6 1 1 349 349 345 339 212 206 212 194 195 191 199 198 200 202 196 197
283 358 43 41 360 349 313 324 312 287 286 334 312 277 342 25 9 356 2 4 11 2 4 354 352 1 358 355 348 339 337 327 335 206 205 213 209 204 202 203 201 196 198 198
299 288 55 347 351 13 340 326 320 331 75 65 102 18 355 360 336 336 352 5 7 2 357 356 348 351 5 353 349 342 342 326 319 339 221 216 226 212 200 205 204 198 198 200
337 13 330 19 359 343 352 23 349 358 1 224 298 327 43 299 321 305 324 11 1 355 355 357 354 352 351 357 348 345 350 332 322 314 345 239 220 229 216 203 203 197 199 201
68 337 28 338 13 313 325 17 124 307 283 291 288 237 109 279 260 269 22 10 358 345 357 356 353 354 347 350 349 350 356 351 343 333 323 324 240 220 229 220 210 211 203 202
57 282 332 31 339 36 323 28 268 237 279 297 227 124 272 297 23 352 356 355 346 356 6 357 353 356 344 347 352 353 356 349 340 328 325 322 315 236 221 227 222 214 214 207
206 300 39 332 320 354 322 10 20 6 336 308 303 315 147 354 350 347 349 345 351 344 0 359 0 353 353 349 351 357 360 353 339 329 329 321 308 298 239 231 227 225 221 212
103 107 293 350 12 340 28 32 13 264 350 328 328 273 140 350 334 341 329 344 339 330 341 7 354 347 350 351 355 357 1 354 349 336 331 330 320 276 256 258 292 244 228 217
129 144 314 302 175 151 139 184 178 122 292 240 239 250 279 326 320 332 329 328 343 352 337 356 351 353 355 355 360 359 356 355 351 339 337 338 344 292 273 260 249 295 251 222
175 16 0 348 4 351 16 240 184 118 56 236 229 263 300 295 302 307 313 306 321 338 333 324 327 334 343 335 345 356 352 352 352 347 346 345 343 342 349 308 250 219 283 262
127 160 162 195 216 179 313 260 223 162 213 265 259 278 284 285 292 285 293 302 297 321 312 295 290 301 303 311 324 340 350 353 349 348 348 344 346 338 354 344 332 302 271 275
133 191 166 235 246 242 260 277 290 210 244 218 273 277 287 301 296 314 294 285 315 317 316 308 303 298 306 340 343 344 344 347 346 343 344 343 343 342 345 354 344 344 318 287
26 269 266 278 248 253 277 286 281 275 277 278 269 299 12 323 280 263 299 347 332 316 311 308 311 322 314 329 336 345 354 341 345 335 334 336 345 347 348 349 358 341 344 343
198 159 82 265 315 321 326 240 279 275 339 302 1 303 328 286 296 300 314 294 298 297 299 305 325 322 324 286 322 339 336 338 350 336 331 337 350 344 343 356 2 340 332 336
182 155 140 257 4 12 233 299 255 242 235 273 251 278 281 258 266 249 256 265 281 286 288 301 308 315 332 326 315 317 345 335 343 343 335 336 345 338 344 346 2 352 336 4
194 136 303 149 228 273 284 158 289 309 300 248 251 277 293 289 109 283 228 250 261 275 290 299 287 304 348 346 311 298 330 331 350 348 343 340 341 336 345 347 345 351 349 356
188 191 161 133 186 248 233 261 256 333 263 253 226 272 289 340 324 270 254 253 278 285 300 303 313 332 1 337 336 335 334 354 356 348 338 334 335 338 342 341 338 353 346 350
171 170 206 225 224 262 244 229 271 104 242 295 219 260 285 263 215 266 281 284 272 283 337 326 346 4 353 347 336 340 339 354 349 337 327 328 338 339 344 338 335 347 347 354
186 176 196 127 127 267 215 232 338 238 244 210 205 241 260 259 321 332 304 299 309 350 343 346 5 358 6 353 334 333 348 344 338 341 333 330 334 338 334 347 345 346 344 6
240 192 206 181 213 224 259 223 225 194 185 221 216 227 207 256 279 306 316 332 330 0 331 343 7 351 354 346 349 352 350 342 336 341 339 336 333 337 333 341 344 344 350 4
270 312 235 8 258 239 285 300 225 208 221 220 250 227 199 242 285 284 298 320 8 337 331 338 350 345 349 337 350 3 345 338 337 341 342 335 333 337 337 339 339 337 345 350
207 329 263 272 278 282 263 248 286 264 264 221 188 195 220 251 268 272 353 22 349 339 351 355 351 355 349 347 352 352 341 337 333 337 342 335 334 340 334 339 332 328 326 315
225 250 246 254 259 247 269 271 268 283 286 233 181 220 254 261 124 92 61 34 13 6 358 358 13 359 358 346 339 340 338 335 327 339 337 326 333 342 338 337 339 319 297 299